Weather History for PFYU - December, 2013

Change the Weather History Date:

Tuesday, December 3, 2013

  Actual Average Record
Temperature  
Mean Temperature -15 °F -  
Max Temperature -7 °F -3 °F 14 °F (2002)
Min Temperature -23 °F -14 °F -41 °F (2005)
Degree Days  
Heating Degree Days 80    
Moisture  
Dew Point -21 °F    
Average Humidity 67    
Maximum Humidity 77    
Minimum Humidity 48    
Precipitation  
Precipitation 0.00 in - - ()
Sea Level Pressure  
Sea Level Pressure 30.66 in    
Wind  
Wind Speed 0 mph (North)    
Max Wind Speed 0 mph    
Max Gust Speed -    
Visibility 10 miles    
Events      
Averages and records for this station are not official NWS values.
T = Trace of Precipitation, MM = Missing Value Source: NWS Daily Summary

Daily Weather History Graph

Daily Weather History Graph

Search for Another Location

Airport or City:

Trip Planner

Search our weather history database for the weather conditions in past years. The results will help you decide how hot, cold, wet, or windy it might be!

Date:

Astronomy

Dec. 03, 2013 Rise Set
Actual Time 10:48 AM AKST 2:12 PM AKST
Civil Twilight 9:15 AM AKST 3:46 PM AKST
Nautical Twilight 7:59 AM AKST 5:02 PM AKST
Astronomical Twilight 6:54 AM AKST 6:07 PM AKST
Moon 11:04 AM AKST (12/3) 3:50 PM AKST (12/3)
Length of Visible Light 6h 30m
Length of Day
3h 24m
New Moon, 1% of the Moon is Illuminated
Dec 3
New Moon
Dec 9
First Quarter
Dec 17
Full
Dec 25
Last Quarter
Jan 1
New

Hourly Weather History & Observations

Time (AKST) Temp. Dew Point Humidity Pressure Visibility Wind Dir Wind Speed Gust Speed Precip Events Conditions
12:36 AM -18.4 °F -25.6 °F 70% 30.78 in 10.0 mi Calm Calm - N/A   Clear
1:16 AM -16.6 °F -25.6 °F 64% 30.77 in 10.0 mi Calm Calm - N/A   Clear
1:36 AM -16.6 °F -25.6 °F 64% 30.77 in 10.0 mi Calm Calm - N/A   Clear
1:56 AM -16.6 °F -25.6 °F 64% 30.77 in 10.0 mi Calm Calm - N/A   Clear
2:16 AM -16.6 °F -25.6 °F 64% 30.77 in 10.0 mi Calm Calm - N/A   Clear
2:56 AM -16.6 °F -23.8 °F 70% 30.76 in 10.0 mi Calm Calm - N/A   Clear
3:36 AM -16.6 °F -23.8 °F 70% 30.76 in 10.0 mi Calm Calm - N/A   Clear
3:56 AM -16.6 °F -23.8 °F 70% 30.76 in 10.0 mi Calm Calm - N/A   Clear
4:16 AM -16.6 °F -23.8 °F 70% 30.75 in 10.0 mi Calm Calm - N/A   Clear
4:36 AM -16.6 °F -23.8 °F 70% 30.75 in 10.0 mi Calm Calm - N/A   Clear
5:36 AM -14.8 °F -23.8 °F 64% 30.75 in 10.0 mi Calm Calm - N/A   Clear
6:56 AM -16.6 °F -23.8 °F 70% 30.73 in 10.0 mi Calm Calm - N/A   Clear
7:36 AM -16.6 °F -23.8 °F 70% 30.72 in 10.0 mi Calm Calm - N/A   Clear
7:56 AM -16.6 °F -23.8 °F 70% 30.71 in 10.0 mi Calm Calm - N/A   Clear
8:16 AM -14.8 °F -23.8 °F 64% 30.70 in 10.0 mi Calm Calm - N/A   Clear
8:36 AM -14.8 °F -23.8 °F 64% 30.70 in 10.0 mi Calm Calm - N/A   Clear
8:56 AM -14.8 °F -23.8 °F 64% 30.70 in 10.0 mi Calm Calm - N/A   Clear
9:16 AM -14.8 °F -23.8 °F 64% 30.70 in 10.0 mi Calm Calm - N/A   Clear
9:36 AM -14.8 °F -23.8 °F 64% 30.70 in 10.0 mi Calm Calm - N/A   Clear
9:56 AM -14.8 °F -23.8 °F 64% 30.70 in 10.0 mi Calm Calm - N/A   Clear
10:16 AM -14.8 °F -23.8 °F 64% 30.69 in 10.0 mi Calm Calm - N/A   Scattered Clouds
10:36 AM -14.8 °F -22.0 °F 70% 30.69 in 10.0 mi Calm Calm - N/A   Mostly Cloudy
10:56 AM -14.8 °F -23.8 °F 64% 30.70 in 10.0 mi Calm Calm - N/A   Partly Cloudy
11:16 AM -14.8 °F -20.2 °F 77% 30.69 in 10.0 mi Calm Calm - N/A   Clear
11:36 AM -14.8 °F -22.0 °F 70% 30.69 in 10.0 mi Calm Calm - N/A   Clear
11:56 AM -14.8 °F -22.0 °F 70% 30.68 in 10.0 mi Calm Calm - N/A   Partly Cloudy
12:16 PM -13.0 °F -20.2 °F 70% 30.67 in 10.0 mi Calm Calm - N/A   Partly Cloudy
12:36 PM -13.0 °F -20.2 °F 70% 30.66 in 10.0 mi Calm Calm - N/A   Partly Cloudy
1:16 PM -13.0 °F -20.2 °F 70% 30.67 in 10.0 mi Calm Calm - N/A   Clear
1:36 PM -11.2 °F -20.2 °F 64% 30.66 in 10.0 mi Calm Calm - N/A   Mostly Cloudy
1:56 PM -11.2 °F -20.2 °F 64% 30.66 in 10.0 mi Calm Calm - N/A   Scattered Clouds
2:16 PM -11.2 °F -20.2 °F 64% 30.65 in 10.0 mi Calm Calm - N/A   Scattered Clouds
2:36 PM -11.2 °F -20.2 °F 64% 30.65 in 10.0 mi Calm Calm - N/A   Overcast
3:36 PM -11.2 °F -18.4 °F 70% 30.63 in 10.0 mi Calm Calm - N/A   Overcast
3:56 PM -11.2 °F -18.4 °F 70% 30.62 in 10.0 mi Calm Calm - N/A   Overcast
4:16 PM -11.2 °F -18.4 °F 70% 30.62 in 10.0 mi Calm Calm - N/A   Overcast
4:56 PM -9.4 °F -16.6 °F 71% 30.60 in 10.0 mi Calm Calm - N/A   Overcast
5:16 PM -9.4 °F -16.6 °F 71% 30.59 in 10.0 mi Calm Calm - N/A   Overcast
5:36 PM -9.4 °F -18.4 °F 65% 30.60 in 8.0 mi Calm Calm - N/A   Mostly Cloudy
5:56 PM -9.4 °F -16.6 °F 71% 30.59 in 8.0 mi Calm Calm - N/A   Mostly Cloudy
6:16 PM -9.4 °F -16.6 °F 71% 30.59 in 6.0 mi Calm Calm - N/A   Overcast
6:36 PM -9.4 °F -16.6 °F 71% 30.60 in 6.0 mi Calm Calm - N/A   Overcast
7:16 PM -7.6 °F -16.6 °F 65% 30.58 in 10.0 mi Calm Calm - N/A   Overcast
7:36 PM -7.6 °F -16.6 °F 65% 30.58 in 10.0 mi Calm Calm - N/A   Scattered Clouds
7:56 PM -7.6 °F -16.6 °F 65% 30.57 in 10.0 mi Calm Calm - N/A   Clear
8:16 PM -7.6 °F -16.6 °F 65% 30.57 in 10.0 mi Calm Calm - N/A   Mostly Cloudy
8:36 PM -7.6 °F -14.8 °F 71% 30.57 in 10.0 mi Calm Calm - N/A   Scattered Clouds
8:56 PM -7.6 °F -16.6 °F 65% 30.57 in 10.0 mi Calm Calm - N/A   Clear
9:16 PM -7.6 °F -16.6 °F 65% 30.58 in 10.0 mi Calm Calm - N/A   Partly Cloudy
9:36 PM -7.6 °F -14.8 °F 71% 30.57 in 10.0 mi Calm Calm - N/A   Mostly Cloudy
9:56 PM -9.4 °F -16.6 °F 71% 30.56 in 10.0 mi Calm Calm - N/A   Mostly Cloudy
10:16 PM -9.4 °F -18.4 °F 65% 30.57 in 10.0 mi Calm Calm - N/A   Scattered Clouds
10:36 PM -11.2 °F -18.4 °F 70% 30.56 in 10.0 mi Calm Calm - N/A   Scattered Clouds
10:56 PM -13.0 °F -22.0 °F 64% 30.56 in 10.0 mi Calm Calm - N/A   Partly Cloudy
11:16 PM -14.8 °F -22.0 °F 70% 30.56 in 8.0 mi Calm Calm - N/A   Clear
11:36 PM -14.8 °F -23.8 °F 64% 30.57 in 10.0 mi Calm Calm - N/A   Clear
11:56 PM -16.6 °F -25.6 °F 64% 30.56 in 10.0 mi Calm Calm - N/A   Clear